| time (UTC) | temp C | wind direction | speed KPH | gust KPH | rain 1hr cm | rain 24hr cm | rain mn cm | humidity % | barometer mb |
| 20260502130106 | -3 | 0 | 0.0 | 3.2 | 0.00 | 0.00 | 0.00 | 58 | 1019.1 |
| 20260502123057 | -3 | 360 | 1.6 | 4.8 | 0.00 | 0.00 | 0.00 | 58 | 1018.8 |
| 20260502121554 | -3 | 0 | 0.0 | 3.2 | 0.00 | 0.00 | 0.00 | 57 | 1019.0 |
| 20260502120104 | -3 | 0 | 0.0 | 3.2 | 0.00 | 0.00 | 0.00 | 55 | 1019.1 |
| 20260502114602 | -2 | 360 | 1.6 | 4.8 | 0.00 | 0.00 | 0.00 | 52 | 1018.8 |
| 20260502113058 | -1 | 0 | 0.0 | 1.6 | 0.00 | 0.00 | 0.00 | 52 | 1018.7 |
| 20260502111609 | -1 | 360 | 1.6 | 4.8 | 0.00 | 0.00 | 0.00 | 52 | 1018.7 |
| 20260502104600 | -2 | 360 | 1.6 | 3.2 | 0.00 | 0.00 | 0.00 | 53 | 1018.9 |
| 20260502103106 | -2 | 0 | 0.0 | 1.6 | 0.00 | 0.00 | 0.00 | 54 | 1019.0 |
| 20260502101613 | -2 | 360 | 0.0 | 3.2 | 0.00 | 0.00 | 0.00 | 53 | 1018.8 |
| 20260502100104 | -2 | 360 | 1.6 | 4.8 | 0.00 | 0.00 | 0.00 | 52 | 1018.8 |
| 20260502090114 | 0 | 360 | 0.0 | 4.8 | 0.00 | 0.00 | 0.00 | 46 | 1018.8 |
| 20260502070110 | 2 | 360 | 0.0 | 3.2 | 0.00 | 0.00 | 0.00 | 41 | 1018.6 |
| 20260502064618 | 3 | 0 | 0.0 | 1.6 | 0.00 | 0.00 | 0.00 | 40 | 1018.6 |
| 20260502063057 | 3 | 0 | 1.6 | 6.4 | 0.00 | 0.00 | 0.00 | 39 | 1018.6 |
| 20260502061601 | 3 | 360 | 3.2 | 6.4 | 0.00 | 0.00 | 0.00 | 40 | 1018.4 |
| 20260502060054 | 3 | 360 | 3.2 | 6.4 | 0.00 | 0.00 | 0.00 | 39 | 1018.2 |
| 20260502054600 | 3 | 360 | 3.2 | 8.0 | 0.00 | 0.00 | 0.00 | 37 | 1018.1 |
| 20260502053056 | 5 | 0 | 0.0 | 1.6 | 0.00 | 0.00 | 0.00 | 35 | 1018.1 |
| 20260502051556 | 5 | 0 | 0.0 | 3.2 | 0.00 | 0.00 | 0.00 | 35 | 1017.9 |
| 20260502050057 | 6 | 0 | 0.0 | 3.2 | 0.00 | 0.00 | 0.00 | 34 | 1017.9 |
| 20260502044556 | 6 | 360 | 0.0 | 3.2 | 0.00 | 0.00 | 0.00 | 33 | 1017.8 |
| 20260502043054 | 6 | 0 | 0.0 | 4.8 | 0.00 | 0.00 | 0.00 | 33 | 1017.7 |
| 20260502041559 | 6 | 360 | 1.6 | 4.8 | 0.00 | 0.00 | 0.00 | 31 | 1017.6 |
| 20260502040053 | 7 | 0 | 0.0 | 4.8 | 0.00 | 0.00 | 0.00 | 29 | 1017.4 |
| 20260502034601 | 8 | 0 | 1.6 | 4.8 | 0.00 | 0.00 | 0.00 | 28 | 1017.2 |
| 20260502033117 | 10 | 360 | 0.0 | 3.2 | 0.00 | 0.00 | 0.00 | 26 | 1017.0 |
| 20260502031602 | 11 | 360 | 1.6 | 4.8 | 0.00 | 0.00 | 0.00 | 24 | 1016.5 |
| 20260502030112 | 11 | 360 | 1.6 | 6.4 | 0.00 | 0.00 | 0.00 | 22 | 1016.4 |
| 20260502024606 | 13 | 360 | 1.6 | 8.0 | 0.00 | 0.00 | 0.00 | 21 | 1016.2 |
| 20260502023121 | 14 | 360 | 1.6 | 9.7 | 0.00 | 0.00 | 0.00 | 20 | 1015.9 |
| 20260502021553 | 15 | 360 | 4.8 | 14.5 | 0.00 | 0.00 | 0.00 | 20 | 1016.0 |
| 20260502020059 | 16 | 360 | 4.8 | 19.3 | 0.00 | 0.00 | 0.00 | 18 | 1015.9 |
| 20260502014557 | 16 | 360 | 6.4 | 19.3 | 0.00 | 0.00 | 0.00 | 17 | 1015.7 |
| 20260502013105 | 17 | 360 | 8.0 | 20.9 | 0.00 | 0.00 | 0.00 | 16 | 1015.6 |
| 20260502011559 | 17 | 360 | 11.3 | 24.1 | 0.00 | 0.00 | 0.00 | 16 | 1015.7 |
| 20260502010058 | 18 | 360 | 11.3 | 22.5 | 0.00 | 0.00 | 0.00 | 16 | 1015.5 |
| 20260502004559 | 18 | 360 | 11.3 | 25.7 | 0.00 | 0.00 | 0.00 | 14 | 1015.5 |
| 20260502003059 | 18 | 360 | 11.3 | 22.5 | 0.00 | 0.00 | 0.00 | 14 | 1015.5 |
| 20260502001629 | 19 | 360 | 4.8 | 20.9 | 0.00 | 0.00 | 0.00 | 13 | 1015.5 |
| 20260502000121 | 19 | 360 | 8.0 | 25.7 | 0.00 | 0.00 | 0.00 | 13 | 1015.5 |
| 20260501234622 | 20 | 360 | 8.0 | 22.5 | 0.00 | 0.00 | 0.00 | 12 | 1015.5 |
| 20260501233053 | 20 | 360 | 11.3 | 27.4 | 0.00 | 0.00 | 0.00 | 14 | 1015.4 |
| 20260501231604 | 20 | 360 | 11.3 | 27.4 | 0.00 | 0.00 | 0.00 | 14 | 1015.2 |
| 20260501230056 | 20 | 360 | 11.3 | 22.5 | 0.00 | 0.00 | 0.00 | 13 | 1015.3 |
| 20260501224607 | 20 | 360 | 14.5 | 32.2 | 0.00 | 0.00 | 0.00 | 14 | 1015.3 |
| 20260501223054 | 20 | 360 | 6.4 | 20.9 | 0.00 | 0.00 | 0.00 | 15 | 1015.5 |
| 20260501221556 | 20 | 360 | 11.3 | 30.6 | 0.00 | 0.00 | 0.00 | 16 | 1015.6 |
| 20260501220059 | 20 | 360 | 8.0 | 25.7 | 0.00 | 0.00 | 0.00 | 16 | 1015.8 |
| 20260501214557 | 19 | 360 | 9.7 | 22.5 | 0.00 | 0.00 | 0.00 | 17 | 1016.0 |
| 20260501213056 | 20 | 360 | 9.7 | 22.5 | 0.00 | 0.00 | 0.00 | 17 | 1016.1 |
| 20260501211555 | 20 | 360 | 9.7 | 22.5 | 0.00 | 0.00 | 0.00 | 17 | 1016.3 |
| 20260501210055 | 20 | 360 | 4.8 | 16.1 | 0.00 | 0.00 | 0.00 | 18 | 1016.3 |
| 20260501204557 | 20 | 360 | 3.2 | 16.1 | 0.00 | 0.00 | 0.00 | 18 | 1016.4 |
| 20260501203100 | 19 | 360 | 11.3 | 24.1 | 0.00 | 0.00 | 0.00 | 18 | 1016.5 |
| 20260501201559 | 18 | 360 | 3.2 | 17.7 | 0.00 | 0.00 | 0.00 | 17 | 1016.4 |
| 20260501200057 | 18 | 360 | 8.0 | 32.2 | 0.00 | 0.00 | 0.00 | 18 | 1016.5 |
| 20260501194601 | 18 | 360 | 9.7 | 19.3 | 0.00 | 0.00 | 0.00 | 18 | 1016.6 |
| 20260501193055 | 19 | 360 | 9.7 | 22.5 | 0.00 | 0.00 | 0.00 | 18 | 1016.4 |
| 20260501191556 | 19 | 360 | 6.4 | 22.5 | 0.00 | 0.00 | 0.00 | 19 | 1016.8 |
| 20260501190052 | 18 | 360 | 11.3 | 19.3 | 0.00 | 0.00 | 0.00 | 20 | 1016.8 |
| 20260501184554 | 17 | 360 | 9.7 | 20.9 | 0.00 | 0.00 | 0.00 | 21 | 1017.0 |
| 20260501183054 | 18 | 360 | 8.0 | 20.9 | 0.00 | 0.00 | 0.00 | 22 | 1017.2 |
| 20260501181553 | 17 | 360 | 16.1 | 30.6 | 0.00 | 0.00 | 0.00 | 21 | 1017.2 |
| 20260501180054 | 17 | 360 | 9.7 | 30.6 | 0.00 | 0.00 | 0.00 | 23 | 1017.2 |
| 20260501174554 | 17 | 360 | 6.4 | 27.4 | 0.00 | 0.00 | 0.00 | 24 | 1017.4 |
| 20260501173123 | 16 | 360 | 1.6 | 17.7 | 0.00 | 0.00 | 0.00 | 25 | 1017.4 |
| 20260501171553 | 16 | 360 | 8.0 | 19.3 | 0.00 | 0.00 | 0.00 | 26 | 1017.6 |
| 20260501170101 | 15 | 360 | 9.7 | 17.7 | 0.00 | 0.00 | 0.00 | 27 | 1017.6 |
| 20260501164618 | 15 | 360 | 6.4 | 19.3 | 0.00 | 0.00 | 0.00 | 29 | 1017.6 |
| 20260501163055 | 14 | 360 | 6.4 | 17.7 | 0.00 | 0.00 | 0.00 | 28 | 1017.5 |
| 20260501161559 | 14 | 360 | 4.8 | 17.7 | 0.00 | 0.00 | 0.00 | 27 | 1017.6 |
| 20260501160057 | 13 | 360 | 4.8 | 16.1 | 0.00 | 0.00 | 0.00 | 28 | 1017.6 |
| 20260501154602 | 13 | 360 | 3.2 | 8.0 | 0.00 | 0.00 | 0.00 | 30 | 1017.6 |
| 20260501153101 | 12 | 360 | 4.8 | 9.7 | 0.00 | 0.00 | 0.00 | 32 | 1017.6 |
| 20260501151604 | 11 | 360 | 1.6 | 8.0 | 0.00 | 0.00 | 0.00 | 32 | 1017.5 |
| 20260501150052 | 11 | 360 | 0.0 | 6.4 | 0.00 | 0.00 | 0.00 | 34 | 1017.5 |
| 20260501144616 | 9 | 0 | 0.0 | 4.8 | 0.00 | 0.00 | 0.00 | 37 | 1017.4 |